DW6282 Weather Reports


Display with metric or nautical units.
time (UTC)temp
F
wind
direction
speed
MPH
gust
MPH
rain 1hr
in
rain 24hr
in
rain mn
in
humidity
%
barometer
mb
20260904101514 80 199 0.0 0.0 0.00 0.00 0.00 94 1011.4
20260904100013 80 199 0.0 0.0 0.00 0.00 0.00 94 1011.1
20260904094512 80 199 0.0 0.0 0.00 0.00 0.00 93 1011.1
20260904093012 80 199 0.0 0.0 0.00 0.00 0.00 93 1011.0
20260904091511 80 199 0.0 0.0 0.00 0.00 0.00 93 1010.9
20260904090011 80 199 0.0 0.0 0.00 0.00 0.00 93 1010.9
20260904084511 80 199 0.0 0.0 0.00 0.00 0.00 93 1010.9
20260904083008 80 199 0.0 0.0 0.00 0.00 0.00 92 1010.9
20260904081507 80 199 0.0 0.0 0.00 0.00 0.00 92 1010.9
20260904080004 81 199 0.0 0.0 0.00 0.00 0.00 91 1011.0
20260904074501 81 199 0.0 0.0 0.00 0.00 0.00 90 1011.0
20260904073103 81 200 0.0 0.0 0.00 0.00 0.00 90 1011.1
20260904071600 81 200 0.0 1.0 0.00 0.00 0.00 90 1011.1
20260904070058 81 199 0.0 1.0 0.00 0.00 0.00 90 1011.2
20260904064557 82 199 0.0 1.0 0.00 0.00 0.00 89 1011.3
20260904063105 81 199 0.0 2.0 0.00 0.00 0.00 90 1011.2
20260904061555 81 206 0.0 0.0 0.00 0.00 0.00 90 1011.3
20260904060100 82 206 0.0 0.0 0.00 0.00 0.00 90 1011.3
20260904054552 82 206 0.0 0.0 0.00 0.00 0.00 90 1011.4
20260904053051 82 206 0.0 0.0 0.00 0.00 0.00 89 1011.3
20260904051600 82 195 0.0 2.0 0.00 0.00 0.00 89 1011.4
20260904050047 82 187 0.0 3.0 0.00 0.00 0.00 89 1011.5
20260904044547 82 205 0.0 4.0 0.00 0.00 0.00 90 1011.5
20260904043046 82 210 0.0 1.0 0.00 0.00 0.00 91 1011.4
20260904041545 82 209 0.0 1.0 0.00 0.00 0.00 90 1011.5
20260904040045 82 209 0.0 1.0 0.00 0.00 0.00 90 1011.5
20260904034544 82 206 0.0 0.0 0.00 0.00 0.00 89 1011.5
20260904033043 82 206 0.0 0.0 0.00 0.00 0.00 88 1011.5
20260904031543 82 206 0.0 0.0 0.00 0.00 0.00 89 1011.7
20260904030042 82 206 0.0 0.0 0.00 0.00 0.00 89 1011.7
20260904024543 82 206 0.0 0.0 0.00 0.00 0.00 88 1011.6
20260904023041 82 206 0.0 3.0 0.00 0.00 0.00 88 1011.5
20260904021540 82 199 0.0 1.0 0.00 0.00 0.00 89 1011.2
20260904020040 82 199 0.0 0.0 0.00 0.00 0.00 89 1011.1
20260904014548 83 199 0.0 0.0 0.00 0.00 0.00 88 1010.8
20260904013038 83 199 0.0 0.0 0.00 0.00 0.00 88 1010.7
20260904011539 83 199 0.0 1.0 0.00 0.00 0.00 88 1010.7
20260904010045 83 211 0.0 0.0 0.00 0.00 0.00 88 1010.7
20260904004537 83 209 0.0 0.0 0.00 0.00 0.00 86 1010.6
20260904003036 84 209 0.0 0.0 0.00 0.00 0.00 85 1010.5
20260904001637 84 209 0.0 1.0 0.00 0.00 0.00 84 1010.7
20260904000044 84 205 0.0 1.0 0.00 0.00 0.00 84 1010.9
20260903234535 85 205 0.0 1.0 0.00 0.00 0.00 85 1010.8
20260903233034 85 231 0.0 1.0 0.00 0.00 0.00 85 1010.7
20260903231534 85 315 0.0 1.0 0.00 0.00 0.00 85 1010.6
20260903230032 85 65 0.0 2.0 0.00 0.00 0.00 85 1010.6
20260903224530 86 254 0.0 3.0 0.00 0.00 0.00 85 1010.9
20260903223035 86 65 0.0 3.0 0.00 0.00 0.00 84 1010.9
20260903221529 86 342 0.0 1.0 0.00 0.00 0.00 85 1010.9
20260903220027 86 338 0.0 3.0 0.00 0.00 0.00 85 1011.0
20260903214525 86 270 0.0 1.0 0.00 0.00 0.00 85 1011.2
20260903213024 86 270 0.0 1.0 0.00 0.00 0.00 86 1011.8
20260903211524 85 37 0.0 2.0 0.00 0.00 0.00 86 1011.7
20260903210023 85 45 0.0 1.0 0.00 0.00 0.00 84 1011.7
20260903204523 84 344 0.0 1.0 0.00 0.00 0.00 85 1011.9
20260903203033 83 109 0.0 4.0 0.00 0.00 0.00 85 1011.5
20260903201521 83 32 0.0 3.0 0.00 0.00 0.00 86 1011.5
20260903200020 82 34 0.0 5.0 0.00 0.00 0.00 82 1011.5
20260903194520 82 316 1.0 5.0 0.00 0.00 0.00 83 1012.0
20260903193021 83 36 6.0 11.0 0.00 0.00 0.00 82 1012.2
20260903191518 87 205 0.0 4.0 0.00 0.00 0.00 79 1011.8
20260903190017 91 190 1.0 7.0 0.00 0.00 0.00 77 1011.9
20260903184519 93 182 0.0 3.0 0.00 0.00 0.00 76 1011.8
20260903183015 94 228 0.0 2.0 0.00 0.00 0.00 74 1012.2
20260903181514 93 178 0.0 1.0 0.00 0.00 0.00 74 1012.1
20260903180013 92 224 0.0 2.0 0.00 0.00 0.00 74 1012.5
20260903174518 93 139 0.0 5.0 0.00 0.00 0.00 75 1012.7
20260903173011 94 194 0.0 2.0 0.00 0.00 0.00 76 1012.7
20260903171509 92 207 0.0 1.0 0.00 0.00 0.00 77 1012.9
20260903170007 93 210 0.0 2.0 0.00 0.00 0.00 77 1013.1
20260903164504 91 197 0.0 5.0 0.00 0.00 0.00 79 1013.1
20260903163102 89 160 0.0 1.0 0.00 0.00 0.00 81 1013.0
20260903161556 87 202 0.0 0.0 0.00 0.00 0.00 83 1012.9
20260903160105 86 202 0.0 1.0 0.00 0.00 0.00 85 1012.9
20260903154552 85 201 0.0 1.0 0.00 0.00 0.00 86 1012.9
20260903153049 85 200 0.0 1.0 0.00 0.00 0.00 86 1012.8
20260903151545 84 200 0.0 0.0 0.00 0.00 0.00 87 1012.9
20260903150048 83 200 0.0 0.0 0.00 0.00 0.00 88 1012.8
20260903144551 82 201 0.0 0.0 0.00 0.00 0.00 88 1012.8
20260903143043 81 201 0.0 0.0 0.00 0.00 0.00 88 1012.9
20260903141544 80 200 0.0 0.0 0.00 0.00 0.00 89 1013.1
20260903140041 80 201 0.0 0.0 0.00 0.00 0.00 89 1013.0
20260903134543 80 201 0.0 0.0 0.00 0.00 0.00 89 1013.2
20260903133040 80 201 0.0 0.0 0.00 0.00 0.00 89 1013.1
20260903131539 80 201 0.0 0.0 0.00 0.00 0.00 89 1013.1
20260903130040 80 201 0.0 0.0 0.00 0.00 0.00 89 1012.9
20260903124541 80 201 0.0 2.0 0.00 0.00 0.00 88 1012.7
20260903123036 80 205 0.0 4.0 0.00 0.00 0.00 86 1012.7
20260903121534 81 207 1.0 3.0 0.00 0.00 0.00 91 1012.4
20260903120034 81 198 0.0 0.0 0.00 0.00 0.00 92 1012.3
20260903114531 82 198 0.0 0.0 0.00 0.06 0.00 92 1012.2
20260903113036 82 198 0.0 0.0 0.00 0.06 0.00 92 1012.2
20260903111533 82 198 0.0 0.0 0.00 0.06 0.00 91 1012.1
20260903110030 82 198 0.0 0.0 0.00 0.06 0.00 91 1012.0
20260903104529 82 198 0.0 2.0 0.00 0.06 0.00 90 1011.9
20260903103029 82 198 0.0 1.0 0.00 0.06 0.00 91 1011.9